DAL4178 KATL-KIAH

Flight info

Callsign DAL4178
Flight time 1h 44m
Altitude 38000
Route KAJIN2 STNGA MHZ AEX DOOBI3
Aircraft A339/H-SADE1E2E3GHIJ3J5M1P2RWXY/LB2D1

Departure

Time 2026-05-06 13:45
Airport Hartsfield Jackson Atlanta International Airport (KATL)

Arrival

Time 2026-05-06 15:29
Airport George Bush Intercontinental Airport (KIAH)
Time Latitude Longitude Altitude Speed Heading
2026-05-06 13:09 33.64007 -84.42632 1041 ft 0 kts 91°
2026-05-06 13:34 33.64007 -84.42657 1041 ft 3 kts 91°
2026-05-06 13:34 33.64008 -84.42690 1043 ft 3 kts 91°
2026-05-06 13:34 33.64007 -84.42719 1042 ft 3 kts 102°
2026-05-06 13:34 33.64005 -84.42736 1042 ft 4 kts 161°
2026-05-06 13:35 33.64025 -84.42739 1041 ft 4 kts 188°
2026-05-06 13:35 33.64048 -84.42735 1043 ft 1 kts 180°
2026-05-06 13:37 33.64043 -84.42735 1041 ft 2 kts 180°
2026-05-06 13:37 33.63989 -84.42736 1041 ft 15 kts 181°
2026-05-06 13:37 33.63866 -84.42737 1041 ft 19 kts 179°
2026-05-06 13:38 33.63747 -84.42737 1041 ft 11 kts 179°
2026-05-06 13:38 33.63737 -84.42736 1041 ft 1 kts 179°
2026-05-06 13:38 33.63680 -84.42715 1041 ft 14 kts 143°
2026-05-06 13:38 33.63656 -84.42599 1042 ft 15 kts 91°
2026-05-06 13:39 33.63656 -84.42469 1041 ft 16 kts 89°
2026-05-06 13:39 33.63655 -84.42331 1042 ft 17 kts 90°
2026-05-06 13:39 33.63642 -84.42189 1042 ft 17 kts 111°
2026-05-06 13:39 33.63590 -84.42058 1042 ft 18 kts 107°
2026-05-06 13:40 33.63582 -84.41909 1041 ft 19 kts 90°
2026-05-06 13:40 33.63582 -84.41752 1041 ft 19 kts 90°
2026-05-06 13:40 33.63581 -84.41641 1041 ft 20 kts 90°
2026-05-06 13:40 33.63582 -84.41471 1040 ft 21 kts 89°
2026-05-06 13:41 33.63585 -84.41236 1041 ft 21 kts 89°
2026-05-06 13:41 33.63582 -84.41116 1041 ft 21 kts 93°
2026-05-06 13:41 33.63579 -84.40963 1041 ft 14 kts 98°
2026-05-06 13:41 33.63526 -84.40911 1042 ft 8 kts 166°
2026-05-06 13:42 33.63481 -84.40944 1042 ft 8 kts 227°
2026-05-06 13:42 33.63473 -84.41005 1041 ft 6 kts 267°
2026-05-06 13:42 33.63473 -84.41007 1041 ft 0 kts 267°
2026-05-06 13:43 33.63473 -84.41015 1041 ft 2 kts 268°
2026-05-06 13:44 33.63473 -84.41033 1041 ft 0 kts 269°
2026-05-06 13:44 33.63473 -84.41034 1041 ft 0 kts 269°
2026-05-06 13:44 33.63471 -84.41346 1041 ft 82 kts 269°
2026-05-06 13:44 33.63469 -84.42354 1047 ft 155 kts 269°
2026-05-06 13:45 33.63488 -84.43804 1407 ft 187 kts 268°
2026-05-06 13:45 33.63482 -84.47110 2773 ft 203 kts 266°
2026-05-06 13:45 33.63453 -84.48832 3404 ft 209 kts 267°
2026-05-06 13:46 33.63441 -84.50561 3706 ft 212 kts 268°
2026-05-06 13:46 33.63440 -84.52309 3738 ft 208 kts 268°
2026-05-06 13:46 33.63444 -84.54048 3511 ft 208 kts 269°
2026-05-06 13:46 33.63441 -84.55776 3378 ft 209 kts 268°
2026-05-06 13:47 33.63439 -84.57553 3460 ft 221 kts 268°
2026-05-06 13:47 33.63438 -84.59484 3688 ft 241 kts 269°
2026-05-06 13:47 33.63440 -84.61512 4357 ft 244 kts 269°
2026-05-06 13:47 33.63443 -84.63546 5077 ft 245 kts 269°
2026-05-06 13:48 33.63439 -84.64792 5462 ft 247 kts 269°
2026-05-06 13:48 33.63438 -84.64977 5524 ft 247 kts 269°
2026-05-06 13:48 33.63441 -84.66918 6176 ft 248 kts 270°
2026-05-06 13:48 33.63467 -84.68977 6944 ft 246 kts 269°
2026-05-06 13:49 33.63483 -84.71044 7537 ft 249 kts 269°
2026-05-06 13:49 33.63441 -84.73130 8115 ft 252 kts 264°
2026-05-06 13:49 33.63138 -84.75190 8820 ft 250 kts 257°
2026-05-06 13:49 33.62765 -84.77245 9449 ft 252 kts 257°
2026-05-06 13:50 33.62400 -84.79311 10031 ft 256 kts 257°
2026-05-06 13:50 33.62012 -84.81433 10302 ft 268 kts 256°
2026-05-06 13:50 33.61606 -84.83705 10478 ft 288 kts 257°
2026-05-06 13:50 33.61208 -84.86141 10802 ft 302 kts 258°
2026-05-06 13:51 33.60806 -84.88621 11446 ft 304 kts 258°
2026-05-06 13:51 33.60390 -84.91112 12156 ft 305 kts 258°
2026-05-06 13:51 33.59971 -84.93620 12856 ft 309 kts 258°
2026-05-06 13:51 33.59533 -84.96136 13653 ft 308 kts 258°
2026-05-06 13:52 33.59094 -84.98654 14189 ft 310 kts 258°
2026-05-06 13:52 33.58651 -85.01192 14736 ft 312 kts 259°
2026-05-06 13:52 33.58216 -85.03722 15217 ft 315 kts 259°
2026-05-06 13:52 33.57763 -85.06328 15815 ft 314 kts 259°
2026-05-06 13:53 33.57324 -85.08864 16383 ft 315 kts 259°
2026-05-06 13:53 33.56870 -85.11480 16913 ft 318 kts 259°
2026-05-06 13:53 33.56424 -85.14044 17445 ft 319 kts 260°
2026-05-06 13:53 33.55971 -85.16656 17974 ft 321 kts 260°
2026-05-06 13:54 33.55514 -85.19285 18482 ft 323 kts 260°
2026-05-06 13:54 33.55054 -85.21927 18969 ft 325 kts 261°
2026-05-06 13:54 33.54580 -85.24589 19455 ft 327 kts 260°
2026-05-06 13:54 33.54086 -85.27260 19879 ft 330 kts 260°
2026-05-06 13:55 33.53584 -85.29957 20352 ft 333 kts 260°
2026-05-06 13:55 33.53078 -85.32679 20813 ft 335 kts 261°
2026-05-06 13:55 33.52568 -85.35419 21302 ft 338 kts 261°
2026-05-06 13:55 33.52057 -85.38173 21776 ft 339 kts 261°
2026-05-06 13:56 33.51542 -85.40951 22194 ft 343 kts 261°
2026-05-06 13:56 33.51023 -85.43745 22667 ft 344 kts 261°
2026-05-06 13:56 33.50502 -85.46549 23187 ft 346 kts 262°
2026-05-06 13:56 33.49978 -85.49377 23610 ft 349 kts 262°
2026-05-06 13:57 33.49442 -85.52219 23967 ft 352 kts 262°
2026-05-06 13:57 33.48901 -85.55098 24319 ft 355 kts 262°
2026-05-06 13:57 33.48362 -85.57997 24655 ft 358 kts 262°
2026-05-06 13:57 33.47817 -85.60920 25001 ft 362 kts 262°
2026-05-06 13:58 33.47265 -85.63871 25351 ft 365 kts 261°
2026-05-06 13:58 33.46706 -85.66851 25701 ft 368 kts 261°
2026-05-06 13:58 33.46141 -85.69853 26051 ft 371 kts 261°
2026-05-06 13:58 33.45571 -85.72882 26392 ft 374 kts 261°
2026-05-06 13:59 33.44997 -85.75932 26719 ft 378 kts 261°
2026-05-06 13:59 33.44414 -85.79016 27110 ft 381 kts 261°
2026-05-06 13:59 33.43828 -85.82117 27498 ft 383 kts 261°
2026-05-06 13:59 33.43234 -85.85256 27773 ft 388 kts 261°
2026-05-06 14:00 33.42635 -85.88415 28112 ft 391 kts 261°
2026-05-06 14:00 33.42038 -85.91564 28460 ft 395 kts 261°
2026-05-06 14:00 33.41428 -85.94776 28756 ft 398 kts 261°
2026-05-06 14:00 33.40810 -85.98018 29087 ft 401 kts 261°
2026-05-06 14:01 33.40186 -86.01286 29427 ft 404 kts 261°
2026-05-06 14:01 33.39560 -86.04578 29718 ft 407 kts 261°
2026-05-06 14:01 33.38936 -86.07885 29963 ft 410 kts 261°
2026-05-06 14:01 33.38298 -86.11210 30311 ft 412 kts 261°
2026-05-06 14:02 33.37625 -86.14551 30653 ft 413 kts 260°
2026-05-06 14:02 33.36984 -86.17902 31085 ft 414 kts 261°
2026-05-06 14:02 33.36354 -86.21245 31553 ft 410 kts 261°
2026-05-06 14:02 33.35710 -86.24576 31790 ft 414 kts 261°
2026-05-06 14:03 33.35055 -86.27936 32149 ft 415 kts 261°
2026-05-06 14:03 33.34413 -86.31303 32473 ft 415 kts 261°
2026-05-06 14:03 33.33767 -86.34680 32709 ft 417 kts 261°
2026-05-06 14:03 33.33118 -86.38069 32955 ft 418 kts 261°
2026-05-06 14:04 33.32464 -86.41457 33131 ft 418 kts 261°
2026-05-06 14:04 33.31810 -86.44851 33324 ft 420 kts 261°
2026-05-06 14:04 33.31136 -86.48256 33572 ft 420 kts 260°
2026-05-06 14:04 33.30458 -86.51660 33755 ft 420 kts 260°
2026-05-06 14:05 33.29790 -86.55056 33965 ft 420 kts 261°
2026-05-06 14:05 33.29127 -86.58441 34268 ft 416 kts 260°
2026-05-06 14:05 33.28473 -86.61780 34663 ft 410 kts 260°
2026-05-06 14:05 33.27824 -86.65083 34955 ft 407 kts 260°
2026-05-06 14:06 33.27177 -86.68359 35199 ft 405 kts 260°
2026-05-06 14:06 33.26534 -86.71622 35442 ft 403 kts 260°
2026-05-06 14:06 33.25907 -86.74873 35644 ft 400 kts 261°
2026-05-06 14:06 33.25283 -86.78114 35874 ft 398 kts 261°
2026-05-06 14:07 33.24654 -86.81325 36057 ft 397 kts 260°
2026-05-06 14:07 33.24004 -86.84530 36171 ft 397 kts 259°
2026-05-06 14:07 33.23348 -86.87718 36397 ft 393 kts 260°
2026-05-06 14:07 33.22719 -86.90893 36513 ft 393 kts 260°
2026-05-06 14:08 33.22093 -86.94075 36720 ft 392 kts 259°
2026-05-06 14:08 33.21462 -86.97226 37003 ft 388 kts 260°
2026-05-06 14:08 33.20219 -87.03446 37030 ft 384 kts 260°
2026-05-06 14:09 33.18975 -87.09661 37028 ft 385 kts 259°
2026-05-06 14:09 33.17728 -87.15868 37000 ft 385 kts 259°
2026-05-06 14:10 33.16477 -87.22084 36971 ft 385 kts 259°
2026-05-06 14:10 33.15224 -87.28285 36974 ft 384 kts 259°
2026-05-06 14:11 33.13971 -87.34487 36989 ft 383 kts 259°
2026-05-06 14:11 33.12724 -87.40629 36971 ft 381 kts 259°
2026-05-06 14:12 33.11425 -87.46749 36999 ft 386 kts 257°
2026-05-06 14:12 33.09881 -87.52919 37005 ft 390 kts 257°
2026-05-06 14:13 33.08352 -87.59152 37000 ft 393 kts 257°
2026-05-06 14:13 33.06809 -87.65413 37000 ft 394 kts 257°
2026-05-06 14:14 33.05254 -87.71687 36997 ft 395 kts 257°
2026-05-06 14:14 33.03699 -87.77951 36923 ft 394 kts 257°
2026-05-06 14:15 33.02138 -87.84204 36937 ft 393 kts 257°
2026-05-06 14:15 33.00578 -87.90448 36922 ft 393 kts 257°
2026-05-06 14:16 32.99015 -87.96697 36918 ft 394 kts 257°
2026-05-06 14:16 32.97448 -88.02942 36909 ft 394 kts 256°
2026-05-06 14:17 32.95879 -88.09184 36896 ft 393 kts 256°
2026-05-06 14:17 32.94309 -88.15416 36901 ft 393 kts 256°
2026-05-06 14:18 32.92735 -88.21646 36917 ft 392 kts 256°
2026-05-06 14:18 32.91155 -88.27862 36906 ft 393 kts 256°
2026-05-06 14:19 32.89582 -88.34076 36898 ft 392 kts 256°
2026-05-06 14:19 32.88005 -88.40281 36902 ft 392 kts 256°
2026-05-06 14:20 32.86417 -88.46496 36922 ft 394 kts 256°
2026-05-06 14:20 32.84821 -88.52742 36929 ft 395 kts 256°
2026-05-06 14:21 32.83218 -88.59007 36960 ft 397 kts 256°
2026-05-06 14:21 32.81603 -88.65294 36979 ft 398 kts 256°
2026-05-06 14:22 32.79979 -88.71593 37020 ft 399 kts 256°
2026-05-06 14:22 32.78352 -88.77901 37027 ft 399 kts 256°
2026-05-06 14:23 32.76728 -88.84190 37026 ft 398 kts 255°
2026-05-06 14:23 32.75097 -88.90479 37027 ft 398 kts 255°
2026-05-06 14:24 32.73464 -88.96765 37002 ft 398 kts 255°
2026-05-06 14:24 32.71824 -89.03055 36964 ft 399 kts 255°
2026-05-06 14:25 32.70184 -89.09340 36993 ft 399 kts 255°
2026-05-06 14:25 32.68540 -89.15627 36988 ft 399 kts 255°
2026-05-06 14:26 32.67169 -89.20857 36971 ft 399 kts 255°
2026-05-06 14:26 32.65248 -89.28178 36958 ft 399 kts 255°
2026-05-06 14:27 32.63862 -89.33447 36940 ft 399 kts 255°
2026-05-06 14:27 32.62202 -89.39734 36945 ft 399 kts 255°
2026-05-06 14:28 32.60544 -89.45974 36919 ft 401 kts 255°
2026-05-06 14:28 32.58869 -89.52305 36912 ft 403 kts 255°
2026-05-06 14:29 32.57188 -89.58651 36935 ft 404 kts 255°
2026-05-06 14:29 32.55487 -89.65039 36936 ft 404 kts 255°
2026-05-06 14:30 32.53792 -89.71386 36955 ft 404 kts 255°
2026-05-06 14:30 32.52095 -89.77734 36955 ft 404 kts 255°
2026-05-06 14:31 32.50391 -89.84090 36949 ft 406 kts 255°
2026-05-06 14:31 32.48686 -89.90429 36949 ft 406 kts 255°
2026-05-06 14:32 32.46974 -89.96787 36940 ft 405 kts 255°
2026-05-06 14:32 32.45264 -90.03134 36998 ft 404 kts 254°
2026-05-06 14:33 32.43431 -90.09411 37051 ft 404 kts 250°
2026-05-06 14:33 32.40870 -90.15333 37144 ft 405 kts 244°
2026-05-06 14:34 32.39477 -90.18220 37246 ft 403 kts 244°
2026-05-06 14:34 32.38102 -90.21101 37350 ft 401 kts 244°
2026-05-06 14:34 32.35377 -90.26838 37554 ft 399 kts 245°
2026-05-06 14:35 32.32655 -90.32550 37619 ft 400 kts 245°
2026-05-06 14:35 32.31295 -90.35397 37895 ft 394 kts 245°
2026-05-06 14:35 32.29953 -90.38201 37966 ft 391 kts 245°
2026-05-06 14:36 32.27261 -90.43832 37985 ft 396 kts 244°
2026-05-06 14:36 32.24541 -90.49509 37992 ft 398 kts 244°
2026-05-06 14:37 32.21799 -90.55212 37992 ft 399 kts 244°
2026-05-06 14:37 32.19051 -90.60928 37985 ft 401 kts 244°
2026-05-06 14:38 32.16294 -90.66653 37961 ft 402 kts 244°
2026-05-06 14:38 32.13529 -90.72384 37956 ft 402 kts 244°
2026-05-06 14:39 32.10760 -90.78116 37964 ft 402 kts 244°
2026-05-06 14:39 32.07991 -90.83835 37966 ft 401 kts 244°
2026-05-06 14:40 32.05227 -90.89538 37970 ft 401 kts 244°
2026-05-06 14:40 32.02462 -90.95232 37966 ft 400 kts 244°
2026-05-06 14:41 31.99697 -91.00919 37963 ft 399 kts 244°
2026-05-06 14:41 31.96933 -91.06595 37959 ft 400 kts 244°
2026-05-06 14:42 31.94163 -91.12279 37935 ft 400 kts 244°
2026-05-06 14:42 31.91396 -91.17948 37929 ft 399 kts 243°
2026-05-06 14:43 31.88628 -91.23606 37923 ft 399 kts 243°
2026-05-06 14:43 31.85862 -91.29251 37918 ft 398 kts 243°
2026-05-06 14:44 31.83094 -91.34893 37916 ft 398 kts 243°
2026-05-06 14:45 31.78940 -91.43345 37895 ft 398 kts 243°
2026-05-06 14:45 31.76183 -91.48942 37908 ft 398 kts 243°
2026-05-06 14:46 31.73410 -91.54568 37953 ft 397 kts 243°
2026-05-06 14:46 31.70638 -91.60178 37853 ft 395 kts 243°
2026-05-06 14:46 31.69260 -91.62964 37264 ft 395 kts 243°
2026-05-06 14:47 31.67878 -91.65756 36445 ft 397 kts 243°
2026-05-06 14:47 31.66492 -91.68558 35676 ft 399 kts 243°
2026-05-06 14:47 31.65091 -91.71386 34772 ft 402 kts 244°
2026-05-06 14:47 31.63682 -91.74230 34302 ft 406 kts 244°
2026-05-06 14:48 31.62250 -91.77113 34069 ft 411 kts 244°
2026-05-06 14:48 31.60807 -91.80016 33966 ft 413 kts 244°
2026-05-06 14:48 31.59359 -91.82928 33938 ft 412 kts 244°
2026-05-06 14:49 31.56477 -91.88722 33934 ft 411 kts 244°
2026-05-06 14:49 31.53598 -91.94503 33940 ft 409 kts 243°
2026-05-06 14:50 31.50729 -92.00253 33940 ft 408 kts 243°
2026-05-06 14:50 31.47853 -92.06004 33947 ft 409 kts 243°
2026-05-06 14:51 31.44971 -92.11757 33952 ft 410 kts 243°
2026-05-06 14:51 31.42083 -92.17517 33958 ft 410 kts 243°
2026-05-06 14:52 31.39190 -92.23283 33965 ft 411 kts 243°
2026-05-06 14:52 31.36290 -92.29052 33942 ft 412 kts 243°
2026-05-06 14:53 31.33387 -92.34817 33945 ft 411 kts 243°
2026-05-06 14:53 31.30487 -92.40566 33935 ft 410 kts 243°
2026-05-06 14:54 31.27590 -92.46304 33960 ft 409 kts 243°
2026-05-06 14:54 31.24719 -92.52043 33961 ft 408 kts 244°
2026-05-06 14:55 31.22147 -92.57943 33962 ft 407 kts 246°
2026-05-06 14:55 31.19609 -92.63861 33962 ft 408 kts 246°
2026-05-06 14:56 31.17015 -92.69780 33962 ft 410 kts 245°
2026-05-06 14:56 31.14404 -92.75694 33972 ft 410 kts 245°
2026-05-06 14:57 31.11788 -92.81611 33971 ft 410 kts 245°
2026-05-06 14:57 31.09173 -92.87519 33964 ft 410 kts 245°
2026-05-06 14:58 31.06554 -92.93423 33952 ft 410 kts 245°
2026-05-06 14:58 31.03930 -92.99329 33950 ft 410 kts 245°
2026-05-06 14:59 31.01308 -93.05227 33947 ft 410 kts 245°
2026-05-06 14:59 30.98681 -93.11123 33945 ft 410 kts 245°
2026-05-06 15:00 30.96051 -93.17016 33943 ft 410 kts 245°
2026-05-06 15:00 30.93419 -93.22901 33948 ft 410 kts 245°
2026-05-06 15:01 30.90783 -93.28796 33944 ft 411 kts 245°
2026-05-06 15:01 30.88137 -93.34695 33952 ft 412 kts 245°
2026-05-06 15:02 30.85491 -93.40584 33864 ft 404 kts 245°
2026-05-06 15:02 30.84205 -93.43440 33754 ft 393 kts 245°
2026-05-06 15:02 30.82956 -93.46214 33655 ft 381 kts 245°
2026-05-06 15:02 30.81746 -93.48899 33556 ft 369 kts 245°
2026-05-06 15:03 30.80579 -93.51492 33439 ft 355 kts 245°
2026-05-06 15:03 30.79451 -93.53995 33334 ft 343 kts 245°
2026-05-06 15:03 30.78363 -93.56403 33231 ft 331 kts 245°
2026-05-06 15:03 30.77313 -93.58728 33149 ft 319 kts 245°
2026-05-06 15:04 30.76301 -93.60967 33049 ft 307 kts 245°
2026-05-06 15:04 30.75325 -93.63128 32870 ft 298 kts 245°
2026-05-06 15:04 30.74367 -93.65252 32449 ft 296 kts 245°
2026-05-06 15:04 30.73413 -93.67360 32027 ft 294 kts 245°
2026-05-06 15:05 30.72467 -93.69455 31637 ft 291 kts 245°
2026-05-06 15:05 30.71530 -93.71528 31256 ft 289 kts 245°
2026-05-06 15:05 30.70602 -93.73583 30856 ft 286 kts 245°
2026-05-06 15:05 30.69675 -93.75621 30470 ft 284 kts 245°
2026-05-06 15:06 30.68759 -93.77644 30084 ft 282 kts 245°
2026-05-06 15:06 30.67850 -93.79651 29621 ft 280 kts 245°
2026-05-06 15:06 30.66949 -93.81647 29171 ft 278 kts 244°
2026-05-06 15:06 30.66056 -93.83625 28727 ft 276 kts 245°
2026-05-06 15:07 30.65171 -93.85591 28281 ft 274 kts 244°
2026-05-06 15:07 30.64287 -93.87543 27840 ft 272 kts 244°
2026-05-06 15:07 30.63420 -93.89457 27416 ft 271 kts 244°
2026-05-06 15:07 30.62542 -93.91381 27002 ft 269 kts 244°
2026-05-06 15:08 30.61667 -93.93295 26628 ft 268 kts 244°
2026-05-06 15:08 30.60801 -93.95205 26238 ft 266 kts 244°
2026-05-06 15:08 30.59944 -93.97100 25839 ft 265 kts 244°
2026-05-06 15:08 30.59087 -93.98990 25417 ft 264 kts 244°
2026-05-06 15:09 30.58234 -94.00867 25027 ft 262 kts 244°
2026-05-06 15:09 30.57384 -94.02737 24640 ft 261 kts 244°
2026-05-06 15:09 30.56536 -94.04598 24252 ft 260 kts 244°
2026-05-06 15:09 30.55691 -94.06454 23871 ft 259 kts 244°
2026-05-06 15:10 30.54840 -94.08322 23112 ft 269 kts 244°
2026-05-06 15:10 30.53934 -94.10315 21963 ft 289 kts 244°
2026-05-06 15:10 30.53287 -94.11732 21371 ft 297 kts 243°
2026-05-06 15:10 30.52316 -94.13849 20853 ft 296 kts 243°
2026-05-06 15:11 30.51352 -94.15946 20389 ft 294 kts 243°
2026-05-06 15:11 30.50394 -94.18029 19891 ft 292 kts 243°
2026-05-06 15:11 30.49450 -94.20072 19424 ft 290 kts 243°
2026-05-06 15:11 30.48495 -94.22154 18965 ft 288 kts 243°
2026-05-06 15:12 30.47558 -94.24197 18476 ft 286 kts 243°
2026-05-06 15:12 30.46639 -94.26201 17988 ft 285 kts 243°
2026-05-06 15:12 30.45694 -94.28254 17429 ft 284 kts 242°
2026-05-06 15:12 30.44781 -94.30242 16885 ft 283 kts 242°
2026-05-06 15:13 30.43858 -94.32252 16334 ft 282 kts 242°
2026-05-06 15:13 30.42937 -94.34261 15805 ft 281 kts 242°
2026-05-06 15:13 30.42020 -94.36256 15307 ft 279 kts 242°
2026-05-06 15:13 30.41110 -94.38226 15090 ft 279 kts 241°
2026-05-06 15:14 30.40065 -94.40131 14947 ft 282 kts 233°
2026-05-06 15:14 30.38748 -94.41810 14808 ft 282 kts 225°
2026-05-06 15:14 30.37239 -94.43254 14668 ft 281 kts 221°
2026-05-06 15:14 30.35715 -94.44676 14521 ft 282 kts 221°
2026-05-06 15:15 30.34197 -94.46113 14401 ft 282 kts 221°
2026-05-06 15:15 30.32679 -94.47554 14259 ft 281 kts 221°
2026-05-06 15:15 30.31173 -94.48993 14109 ft 280 kts 221°
2026-05-06 15:15 30.29674 -94.50425 13968 ft 280 kts 221°
2026-05-06 15:16 30.28167 -94.51868 13838 ft 282 kts 221°
2026-05-06 15:16 30.26663 -94.53307 13690 ft 280 kts 220°
2026-05-06 15:16 30.25161 -94.54735 13535 ft 279 kts 220°
2026-05-06 15:16 30.23660 -94.56156 13390 ft 278 kts 220°
2026-05-06 15:17 30.22162 -94.57580 13241 ft 279 kts 220°
2026-05-06 15:17 30.20724 -94.58946 13099 ft 280 kts 220°
2026-05-06 15:17 30.19210 -94.60347 12952 ft 278 kts 219°
2026-05-06 15:17 30.17675 -94.61710 12805 ft 278 kts 218°
2026-05-06 15:18 30.16138 -94.63057 12656 ft 277 kts 218°
2026-05-06 15:18 30.14603 -94.64406 12497 ft 277 kts 218°
2026-05-06 15:18 30.13074 -94.65757 12361 ft 276 kts 219°
2026-05-06 15:18 30.11550 -94.67108 12209 ft 276 kts 218°
2026-05-06 15:19 30.10026 -94.68456 12066 ft 276 kts 218°
2026-05-06 15:19 30.08510 -94.69803 11925 ft 275 kts 219°
2026-05-06 15:19 30.06998 -94.71153 11788 ft 275 kts 219°
2026-05-06 15:19 30.05491 -94.72498 11651 ft 273 kts 219°
2026-05-06 15:20 30.03988 -94.73839 11494 ft 273 kts 219°
2026-05-06 15:20 30.02503 -94.75195 11352 ft 267 kts 220°
2026-05-06 15:20 30.01335 -94.76756 11193 ft 251 kts 240°
2026-05-06 15:20 30.00849 -94.78623 11048 ft 239 kts 261°
2026-05-06 15:21 30.00867 -94.80498 10914 ft 232 kts 266°
2026-05-06 15:21 30.00888 -94.82376 10777 ft 235 kts 265°
2026-05-06 15:21 30.00887 -94.84248 10631 ft 231 kts 265°
2026-05-06 15:21 30.00881 -94.86092 10307 ft 229 kts 265°
2026-05-06 15:22 30.00867 -94.87926 9888 ft 228 kts 264°
2026-05-06 15:22 30.00795 -94.89756 9398 ft 228 kts 262°
2026-05-06 15:22 30.00732 -94.91587 8944 ft 228 kts 264°
2026-05-06 15:22 30.00718 -94.93404 8534 ft 226 kts 265°
2026-05-06 15:23 30.00717 -94.95213 8086 ft 225 kts 265°
2026-05-06 15:23 30.00719 -94.97023 7642 ft 226 kts 265°
2026-05-06 15:23 30.00716 -94.98831 7228 ft 226 kts 264°
2026-05-06 15:23 30.00719 -95.00614 6847 ft 224 kts 264°
2026-05-06 15:24 30.00720 -95.02411 6471 ft 223 kts 264°
2026-05-06 15:24 30.00717 -95.04197 6009 ft 222 kts 264°
2026-05-06 15:24 30.00716 -95.05992 5532 ft 220 kts 264°
2026-05-06 15:24 30.00726 -95.07732 5102 ft 222 kts 265°
2026-05-06 15:25 30.00717 -95.09537 4614 ft 220 kts 264°
2026-05-06 15:25 30.00715 -95.11284 4140 ft 216 kts 265°
2026-05-06 15:25 30.00720 -95.13001 3679 ft 211 kts 266°
2026-05-06 15:25 30.00718 -95.14692 3254 ft 213 kts 265°
2026-05-06 15:26 30.00720 -95.16426 2878 ft 217 kts 267°
2026-05-06 15:26 30.00708 -95.18139 2593 ft 218 kts 266°
2026-05-06 15:26 30.00710 -95.19908 2270 ft 221 kts 267°
2026-05-06 15:26 30.00710 -95.21644 1968 ft 213 kts 269°
2026-05-06 15:27 30.00714 -95.23323 1687 ft 206 kts 266°
2026-05-06 15:27 30.00725 -95.24944 1445 ft 192 kts 267°
2026-05-06 15:27 30.00709 -95.26417 1191 ft 175 kts 265°
2026-05-06 15:27 30.00717 -95.27714 991 ft 154 kts 267°
2026-05-06 15:28 30.00729 -95.28928 828 ft 156 kts 264°
2026-05-06 15:28 30.00709 -95.30174 630 ft 151 kts 270°
2026-05-06 15:28 30.00721 -95.31395 435 ft 154 kts 266°
2026-05-06 15:28 30.00716 -95.32609 226 ft 148 kts 270°
2026-05-06 15:29 30.00728 -95.33787 118 ft 140 kts 266°
2026-05-06 15:29 30.00719 -95.34564 113 ft 56 kts 270°
2026-05-06 15:29 30.00646 -95.34955 110 ft 43 kts 237°
2026-05-06 15:29 30.00572 -95.35026 111 ft 7 kts 128°
2026-05-06 15:30 30.00557 -95.34951 113 ft 16 kts 95°
2026-05-06 15:30 30.00554 -95.34734 113 ft 38 kts 90°
2026-05-06 15:30 30.00553 -95.34417 113 ft 39 kts 90°
2026-05-06 15:30 30.00552 -95.34111 113 ft 37 kts 90°
2026-05-06 15:31 30.00554 -95.33817 113 ft 36 kts 90°
2026-05-06 15:31 30.00554 -95.33534 109 ft 35 kts 90°
2026-05-06 15:31 30.00546 -95.33260 112 ft 33 kts 102°
2026-05-06 15:32 30.00306 -95.32837 111 ft 31 kts 130°
2026-05-06 15:32 30.00172 -95.32651 109 ft 30 kts 130°
2026-05-06 15:32 30.00003 -95.32539 113 ft 28 kts 176°
2026-05-06 15:32 29.99808 -95.32537 109 ft 28 kts 179°
2026-05-06 15:33 29.99617 -95.32539 111 ft 27 kts 181°
2026-05-06 15:33 29.99429 -95.32540 110 ft 27 kts 179°
2026-05-06 15:33 29.99243 -95.32540 110 ft 24 kts 186°
2026-05-06 15:33 29.99179 -95.32679 113 ft 22 kts 270°
2026-05-06 15:34 29.99179 -95.32854 113 ft 22 kts 270°
2026-05-06 15:34 29.99177 -95.33033 113 ft 22 kts 268°
2026-05-06 15:34 29.99175 -95.33210 109 ft 22 kts 266°
2026-05-06 15:34 29.99180 -95.33365 112 ft 19 kts 270°
2026-05-06 15:35 29.99178 -95.33524 113 ft 20 kts 270°
2026-05-06 15:35 29.99162 -95.33659 112 ft 15 kts 236°
2026-05-06 15:35 29.99068 -95.33661 109 ft 14 kts 156°
2026-05-06 15:35 29.98974 -95.33648 111 ft 11 kts 180°
2026-05-06 15:36 29.98902 -95.33683 112 ft 12 kts 221°
2026-05-06 15:36 29.98845 -95.33741 111 ft 10 kts 208°
2026-05-06 15:36 29.98810 -95.33747 109 ft 0 kts 179°
2026-05-06 15:37 29.98831 -95.33426 109 ft 0 kts 180°